• In Czech Republic
  • List of Countries
  • For 7 days
  • Water Temperature
  • Satellite Maps
  • Weather Map
  • Weather Widgets
  • user-avatar
    Login

    Hourly Weather Kingston upon Thames

    Today, 23 June, Saturday

    Time Temperature Precipitation Wind Pressure Humidity
    00:00 +12°C° 0 mm 2 mps 771 mmHg 84%
    01:00 +12°C° 0 mm 2 mps 770 mmHg 84%
    02:00 +12°C° 0 mm 2 mps 770 mmHg 84%
    03:00 +10°C° 0 mm 2 mps 770 mmHg 84%
    04:00 +12°C° 0 mm 2 mps 770 mmHg 81%
    05:00 +13°C° 0 mm 2 mps 770 mmHg 78%
    06:00 +14°C° 0 mm 2 mps 770 mmHg 76%
    07:00 +15°C° 0 mm 2 mps 770 mmHg 69%
    08:00 +17°C° 0 mm 3 mps 770 mmHg 62%
    09:00 +19°C° 0 mm 3 mps 770 mmHg 55%
    10:00 +20°C° 0 mm 3 mps 770 mmHg 52%
    11:00 +21°C° 0 mm 3 mps 770 mmHg 49%
    12:00 +22°C° 0 mm 3 mps 769 mmHg 46%
    13:00 +22°C° 0 mm 3 mps 769 mmHg 48%
    14:00 +22°C° 0 mm 3 mps 769 mmHg 49%
    15:00 +22°C° 0 mm 3 mps 768 mmHg 50%
    16:00 +22°C° 0 mm 3 mps 768 mmHg 55%
    17:00 +22°C° 0 mm 3 mps 768 mmHg 59%
    18:00 +21°C° 0 mm 3 mps 768 mmHg 64%
    19:00 +20°C° 0 mm 2 mps 768 mmHg 66%
    20:00 +18°C° 0 mm 2 mps 768 mmHg 69%
    21:00 +17°C° 0 mm 2 mps 768 mmHg 72%
    22:00 +16°C° 0 mm 2 mps 768 mmHg 73%
    23:00 +15°C° 0 mm 2 mps 768 mmHg 74%

    Tomorrow, 24 June, Sunday

    Time Temperature Precipitation Wind Pressure Humidity
    00:00 +15°C° 0 mm 1 mps 768 mmHg 75%
    01:00 +14°C° 0 mm 1 mps 768 mmHg 76%
    02:00 +13°C° 0 mm 1 mps 767 mmHg 76%
    03:00 +13°C° 0 mm 1 mps 767 mmHg 77%
    04:00 +13°C° 0 mm 1 mps 767 mmHg 76%
    05:00 +14°C° 0 mm 1 mps 767 mmHg 75%
    06:00 +15°C° 0 mm 1 mps 767 mmHg 74%
    07:00 +16°C° 0 mm 1 mps 768 mmHg 69%
    08:00 +19°C° 0 mm 1 mps 768 mmHg 64%
    09:00 +21°C° 0 mm 1 mps 768 mmHg 58%
    10:00 +22°C° 0 mm 1 mps 768 mmHg 55%
    11:00 +23°C° 0 mm 1 mps 768 mmHg 52%
    12:00 +24°C° 0 mm 1 mps 768 mmHg 48%
    13:00 +24°C° 0 mm 1 mps 767 mmHg 48%
    14:00 +25°C° 0 mm 1 mps 767 mmHg 48%
    15:00 +25°C° 0 mm 1 mps 767 mmHg 48%
    16:00 +24°C° 0 mm 2 mps 767 mmHg 52%
    17:00 +24°C° 0 mm 2 mps 767 mmHg 56%
    18:00 +23°C° 0 mm 2 mps 767 mmHg 60%
    19:00 +20°C° 0 mm 2 mps 767 mmHg 65%
    20:00 +19°C° 0 mm 2 mps 767 mmHg 70%
    21:00 +17°C° 0 mm 2 mps 768 mmHg 75%
    22:00 +16°C° 0 mm 2 mps 768 mmHg 77%
    23:00 +15°C° 0 mm 1 mps 768 mmHg 78%

    Day after tomorrow, 25 June, Monday

    Time Temperature Precipitation Wind Pressure Humidity
    00:00 +15°C° 0 mm 1 mps 768 mmHg 79%
    01:00 +15°C° 0 mm 1 mps 768 mmHg 80%
    02:00 +14°C° 0 mm 1 mps 768 mmHg 81%
    03:00 +14°C° 0 mm 1 mps 768 mmHg 81%
    04:00 +15°C° 0 mm 1 mps 768 mmHg 79%
    05:00 +16°C° 0 mm 1 mps 768 mmHg 77%
    06:00 +18°C° 0 mm 1 mps 768 mmHg 75%
    07:00 +19°C° 0 mm 1 mps 768 mmHg 69%
    08:00 +21°C° 0 mm 1 mps 768 mmHg 64%
    09:00 +23°C° 0 mm 2 mps 768 mmHg 58%
    10:00 +24°C° 0 mm 2 mps 768 mmHg 55%
    11:00 +25°C° 0 mm 2 mps 768 mmHg 51%
    12:00 +26°C° 0 mm 2 mps 768 mmHg 47%
    13:00 +26°C° 0 mm 2 mps 768 mmHg 47%
    14:00 +27°C° 0 mm 2 mps 768 mmHg 46%
    15:00 +27°C° 0 mm 2 mps 768 mmHg 46%
    16:00 +26°C° 0 mm 2 mps 768 mmHg 50%
    17:00 +26°C° 0 mm 2 mps 768 mmHg 55%
    18:00 +25°C° 0 mm 2 mps 767 mmHg 59%
    19:00 +23°C° 0 mm 2 mps 768 mmHg 66%
    20:00 +20°C° 0 mm 2 mps 768 mmHg 73%
    21:00 +18°C° 0 mm 2 mps 768 mmHg 80%
    22:00 +18°C° 0 mm 2 mps 768 mmHg 81%
    23:00 +17°C° 0 mm 2 mps 768 mmHg 83%

    26 June, Tuesday

    Time Temperature Precipitation Wind Pressure Humidity
    00:00 +16°C° 0 mm 2 mps 768 mmHg 85%
    01:00 +16°C° 0 mm 2 mps 768 mmHg 85%
    02:00 +15°C° 0 mm 2 mps 768 mmHg 86%
    03:00 +15°C° 0 mm 2 mps 768 mmHg 87%
    04:00 +15°C° 0 mm 2 mps 768 mmHg 84%
    05:00 +16°C° 0 mm 2 mps 768 mmHg 81%
    06:00 +17°C° 0 mm 2 mps 768 mmHg 78%
    07:00 +18°C° 0 mm 2 mps 768 mmHg 71%
    08:00 +20°C° 0 mm 3 mps 768 mmHg 63%
    09:00 +21°C° 0 mm 3 mps 768 mmHg 55%
    10:00 +22°C° 0 mm 3 mps 768 mmHg 52%
    11:00 +23°C° 0 mm 4 mps 768 mmHg 49%
    12:00 +25°C° 0 mm 4 mps 768 mmHg 46%
    13:00 +25°C° 0 mm 4 mps 768 mmHg 46%
    14:00 +25°C° 0 mm 4 mps 767 mmHg 46%
    15:00 +25°C° 0 mm 4 mps 767 mmHg 46%
    16:00 +23°C° 0 mm 4 mps 767 mmHg 49%
    17:00 +23°C° 0 mm 4 mps 767 mmHg 53%
    18:00 +22°C° 0 mm 4 mps 767 mmHg 57%
    19:00 +20°C° 0 mm 4 mps 767 mmHg 60%
    20:00 +18°C° 0 mm 4 mps 767 mmHg 63%
    21:00 +16°C° 0 mm 3 mps 767 mmHg 66%
    22:00 +14°C° 0 mm 3 mps 767 mmHg 67%
    23:00 +14°C° 0 mm 3 mps 767 mmHg 68%

    27 June, Wednesday

    Time Temperature Precipitation Wind Pressure Humidity
    00:00 +13°C° 0 mm 3 mps 767 mmHg 69%
    01:00 +13°C° 0 mm 3 mps 767 mmHg 72%
    02:00 +13°C° 0 mm 3 mps 767 mmHg 74%
    03:00 +12°C° 0 mm 3 mps 767 mmHg 77%
    04:00 +13°C° 0 mm 3 mps 766 mmHg 78%
    05:00 +14°C° 0 mm 4 mps 766 mmHg 79%
    06:00 +15°C° 0 mm 4 mps 766 mmHg 80%
    07:00 +18°C° 0 mm 4 mps 766 mmHg 75%
    08:00 +20°C° 0 mm 4 mps 766 mmHg 70%
    09:00 +22°C° 0 mm 5 mps 766 mmHg 66%
    10:00 +23°C° 0 mm 5 mps 766 mmHg 63%
    11:00 +25°C° 0 mm 5 mps 765 mmHg 60%
    12:00 +26°C° 0 mm 5 mps 765 mmHg 57%
    13:00 +26°C° 0 mm 5 mps 765 mmHg 57%
    14:00 +27°C° 0 mm 5 mps 765 mmHg 57%
    15:00 +27°C° 0 mm 5 mps 764 mmHg 57%
    16:00 +26°C° 0 mm 5 mps 764 mmHg 59%
    17:00 +25°C° 0 mm 5 mps 764 mmHg 61%
    18:00 +23°C° 0 mm 5 mps 764 mmHg 63%
    19:00 +21°C° 0 mm 4 mps 764 mmHg 63%
    20:00 +20°C° 0 mm 4 mps 765 mmHg 64%
    21:00 +18°C° 0 mm 4 mps 765 mmHg 64%
    22:00 +18°C° 0 mm 4 mps 765 mmHg 64%
    23:00 +17°C° 0 mm 4 mps 765 mmHg 65%

    28 June, Thursday

    Time Temperature Precipitation Wind Pressure Humidity
    00:00 +15°C° 0 mm 4 mps 765 mmHg 65%
    01:00 +15°C° 0 mm 4 mps 765 mmHg 67%
    02:00 +16°C° 0 mm 3 mps 764 mmHg 70%
    03:00 +16°C° 0 mm 3 mps 764 mmHg 73%
    04:00 +17°C° 0 mm 4 mps 764 mmHg 74%
    05:00 +17°C° 0 mm 4 mps 764 mmHg 75%
    06:00 +18°C° 0 mm 4 mps 764 mmHg 77%
    07:00 +20°C° 0 mm 4 mps 764 mmHg 73%
    08:00 +22°C° 0 mm 4 mps 764 mmHg 70%
    09:00 +25°C° 0 mm 4 mps 764 mmHg 67%
    10:00 +26°C° 0 mm 5 mps 764 mmHg 63%
    11:00 +27°C° 0 mm 5 mps 764 mmHg 58%
    12:00 +29°C° 0 mm 5 mps 763 mmHg 54%
    13:00 +29°C° 0 mm 5 mps 763 mmHg 53%
    14:00 +29°C° 0 mm 5 mps 763 mmHg 51%
    15:00 +29°C° 0 mm 5 mps 763 mmHg 50%
    16:00 +28°C° 0 mm 5 mps 763 mmHg 52%
    17:00 +27°C° 0 mm 5 mps 762 mmHg 55%
    18:00 +26°C° 0 mm 4 mps 762 mmHg 57%
    19:00 +23°C° 0 mm 4 mps 763 mmHg 59%
    20:00 +21°C° 0 mm 4 mps 763 mmHg 61%
    21:00 +20°C° 0 mm 4 mps 763 mmHg 63%
    22:00 +19°C° 0 mm 4 mps 763 mmHg 67%
    23:00 +18°C° 0 mm 3 mps 763 mmHg 71%
    Show more